Regional Weather Roundup
Issued by NWS

Home | Current Version | Previous Version | Graphics & Text | Print | Product List | Glossary On
Versions: 1 2 3 4 5 6 7 8 9 10 11 12 13 14 15 16 17 18 19 20 21 22 23 24 25 26 27 28 29 30 31 32 33 34 35 36 37 38 39 40 41 42 43 44 45 46 47 48 49 50
000
ASUS45 KPSR 031900
RWRAZ

ARIZONA HOURLY REGIONAL WEATHER ROUNDUP
NATIONAL WEATHER SERVICE PHOENIX AZ
1200 PM MST WED JUN 03 2015

NOTE: FAIR INDICATES FEW OR NO CLOUDS BELOW 12,000 FEET WITH NO
SIGNIFICANT WEATHER AND/OR OBSTRUCTIONS TO VISIBILITY.

AZZ001>003-036-032000-
NORTHWEST ARIZONA

CITY           SKY/WX    TMP DP  RH WIND       PRES   REMARKS
KINGMAN        SUNNY     86  19   8 SW18G28   29.87F
$$

AZZ004>008-015-016-018-032000-
NORTH CENTRAL ARIZONA

CITY           SKY/WX    TMP DP  RH WIND       PRES   REMARKS
GRAND CANYON   SUNNY     73  21  14 SW18G24   30.07F
WILLIAMS       SUNNY     72  19  14 S18G32    30.15S
PRESCOTT       SUNNY     79  16   9 SW18      30.01F
FLAGSTAFF      NOT AVBL
PAYSON         SUNNY     79  21  11 S12G18    30.06F
PAGE           SUNNY     83  15   8 MISG      29.90F
$$

AZZ009>014-017-032000-
NORTHEAST ARIZONA

CITY           SKY/WX    TMP DP  RH WIND       PRES   REMARKS
WINSLOW        NOT AVBL
SAINT JOHNS    SUNNY     85  11   6 SW23      30.03F
WINDOW ROCK    SUNNY     79  17  10 SW16G24   30.11F
$$

AZZ023-032000-
GREATER PHOENIX AREA

CITY           SKY/WX    TMP DP  RH WIND       PRES   REMARKS
PHOENIX        MOSUNNY   94  23   8 VRB5      29.79F
GLENDALE       SUNNY     93  23   8 SE12      29.81F
LUKE AFB       MOSUNNY   93  28   9 SW7       29.79F
DEER VALLEY    SUNNY     93  15   6 S10       29.82F
SCOTTSDALE     SUNNY     93  24   8 S6        29.84F
MESA-FALCON    SUNNY     91  25   9 VRB6      29.82F
MESA-GATEWAY   SUNNY     91  30  11 SW5       29.84F
CHANDLER       SUNNY     93  25   8 S9        29.81F
$$

AZZ027-028-032000-
SOUTHWEST MARICOPA COUNTY AND PINAL COUNTY

CITY           SKY/WX    TMP DP  RH WIND       PRES   REMARKS
CASA GRANDE    SUNNY     93  30  10 CALM      29.82F
GILA BEND      SUNNY     92  16   6 SW12      29.80S
$$

AZZ503-504-507>509-032000-
SOUTHEAST ARIZONA

CITY           SKY/WX    TMP DP  RH WIND       PRES   REMARKS
TUCSON         SUNNY     96  16   5 VRB6      29.90F
DAVIS-MONTHAN  SUNNY     95  14   5 S9        29.88F
RYAN FIELD     SUNNY     97  23   7 S12G22    29.88F
NOGALES        SUNNY     92  17   6 SW18G25   30.00F
SIERRA VISTA   SUNNY     88  13   6 W18G26    30.05S
SAFFORD        SUNNY     92  22   8 VRB6      29.91F
$$

AZZ020-021-025-026-031-032000-
SOUTHWEST ARIZONA

CITY           SKY/WX    TMP DP  RH WIND       PRES   REMARKS
YUMA           NOT AVBL
$$

CAZ031-033-041-043-047-048-061-032000-
SOUTHERN CALIFORNIA

CITY           SKY/WX    TMP DP  RH WIND       PRES   REMARKS
DOWNTOWN L.A.  CLOUDY    65  56  72 CALM      29.96S
L.A. AIRPORT   CLOUDY    65  55  70 SE6       29.97R
SAN DIEGO      MOSUNNY   67  52  58 W9        29.98S
BURBANK        CLOUDY    62  57  83 S6        29.96S
ONTARIO        CLOUDY    66  54  65 W6        29.96S
RIVERSIDE      PTSUNNY   70  54  56 MISG      29.95F
PALM SPRINGS   SUNNY     90  41  18 MISG      29.80F
EL CENTRO NAS  SUNNY     94  22   7 W22       29.78F
IMPERIAL       SUNNY     92  30  11 W20       29.75F
BLYTHE         SUNNY     90  34  13 MISG      29.76F
$$

NVZ020-UTZ003-032000-
SOUTHERN NEVADA-UTAH

CITY           SKY/WX    TMP DP  RH WIND       PRES   REMARKS
LAS VEGAS      NOT AVBL
SALT LAKE CITY MOSUNNY   77  48  35 NW7       29.85F
$$

NMZ009-TXZ055-032000-
NEW MEXICO-WEST TEXAS

CITY           SKY/WX    TMP DP  RH WIND       PRES   REMARKS
ALBUQUERQUE    MOSUNNY   82  21  10 VRB3      30.05F
EL PASO        SUNNY     93  21   7 SW10      29.96F
$$


........................KEY........................
SKY/WX - SKY CONDITION/WEATHER
TMP    - TEMPERATURE IN FAHRENHEIT
DP     - DEW POINT IN FAHRENHEIT
RH     - RELATIVE HUMIDITY IN PERCENT
WIND   - DIRECTION AND SPEED IN MILES PER HOUR (MPH)
VRB    - VARIABLE WIND DIRECTION
PRES   - MEAN SEA LEVEL PRESSURE IN INCHES OF MERCURY
         F - FALLING PRESSURE   R - RISING PRESSURE
         S - STEADY PRESSURE
VSB    - VISIBILITY IN MILES
HX     - HEAT INDEX IN FAHRENHEIT
WCI    - WIND CHILL INDEX IN FAHRENHEIT
TC     - TEMPERATURE IN CELSIUS WHICH IS ALSO KNOWN AS
         TEMPERATURE IN CENTIGRADE
AFB    - AIR FORCE BASE
         LUKE AFB IS LUKE AIR FORCE BASE
         DAVIS-MONTHAN IS DAVIS-MONTHAN AIR FORCE BASE
NAS    - NAVAL AIR STATION
         EL CENTRO NAS IS EL CENTRO NAVAL AIR STATION
N/A    - NOT AVAILABLE




USA.gov is the U.S. government's official web portal to all federal, state and local government web resources and services.